Time,TemperatureF,DewpointF,PressureIn,WindDirection,WindDirectionDegrees,WindSpeedMPH,WindSpeedGustMPH,Humidity,HourlyPrecipIn,Conditions,Clouds,dailyrainin,SoftwareType,DateUTC
2013-08-20 00:01:00,68.0,63.0,29.92,South,178,0.0,0.0,84,0.00,,---,0.00,VWS V14.00,2013-08-20 05:01:00,
2013-08-20 00:06:00,67.9,62.9,29.92,South,178,0.0,0.0,84,0.00,,---,0.00,VWS V14.00,2013-08-20 05:06:00,
2013-08-20 00:12:00,67.7,63.0,29.92,South,180,0.0,1.0,85,0.00,,---,0.00,VWS V14.00,2013-08-20 05:12:00,
2013-08-20 00:17:00,67.5,62.8,29.92,SW,226,0.0,0.0,85,0.00,,---,0.00,VWS V14.00,2013-08-20 05:17:00,
2013-08-20 00:22:00,67.4,63.1,29.92,SW,226,0.0,0.0,86,0.00,,---,0.00,VWS V14.00,2013-08-20 05:22:00,
2013-08-20 00:27:00,67.3,63.0,29.92,SW,226,0.0,0.0,86,0.00,,---,0.00,VWS V14.00,2013-08-20 05:27:00,
2013-08-20 00:32:00,67.2,62.9,29.92,SW,225,0.0,1.0,86,0.00,,---,0.00,VWS V14.00,2013-08-20 05:32:00,
2013-08-20 00:37:00,67.2,62.9,29.93,SW,227,0.0,1.0,86,0.00,,---,0.00,VWS V14.00,2013-08-20 05:37:00,
2013-08-20 00:42:00,67.2,63.2,29.93,SW,227,0.0,0.0,87,0.00,,---,0.00,VWS V14.00,2013-08-20 05:42:00,
2013-08-20 00:47:00,67.1,63.1,29.93,SW,227,0.0,0.0,87,0.00,,---,0.00,VWS V14.00,2013-08-20 05:47:00,
2013-08-20 00:52:00,67.0,63.0,29.93,South,178,0.0,3.0,87,0.00,,---,0.00,VWS V14.00,2013-08-20 05:52:00,
2013-08-20 00:57:00,66.9,62.9,29.93,SSW,207,1.0,2.0,87,0.00,,---,0.00,VWS V14.00,2013-08-20 05:57:00,
2013-08-20 01:02:00,66.9,62.9,29.93,SSW,203,0.0,1.0,87,0.00,,---,0.00,VWS V14.00,2013-08-20 06:02:00,
2013-08-20 01:07:00,66.9,62.9,29.93,SSW,203,0.0,1.0,87,0.00,,---,0.00,VWS V14.00,2013-08-20 06:07:00,
2013-08-20 01:12:00,66.8,63.1,29.93,South,190,1.0,2.0,88,0.00,,---,0.00,VWS V14.00,2013-08-20 06:12:00,
2013-08-20 01:17:00,66.6,62.9,29.93,SSW,192,0.0,0.0,88,0.00,,---,0.00,VWS V14.00,2013-08-20 06:17:00,
2013-08-20 01:22:00,66.6,62.9,29.93,SW,223,0.0,2.0,88,0.00,,---,0.00,VWS V14.00,2013-08-20 06:22:00,
2013-08-20 01:27:00,66.6,62.9,29.93,SW,222,0.0,2.0,88,0.00,,---,0.00,VWS V14.00,2013-08-20 06:27:00,
2013-08-20 01:32:00,66.5,62.8,29.93,SW,225,2.0,3.0,88,0.00,,---,0.00,VWS V14.00,2013-08-20 06:32:00,
2013-08-20 01:37:00,66.5,62.8,29.93,SW,222,0.0,2.0,88,0.00,,---,0.00,VWS V14.00,2013-08-20 06:37:00,
2013-08-20 01:42:00,66.4,62.7,29.93,SW,221,0.0,0.0,88,0.00,,---,0.00,VWS V14.00,2013-08-20 06:42:00,
2013-08-20 01:47:00,66.4,62.7,29.93,SW,214,0.0,1.0,88,0.00,,---,0.00,VWS V14.00,2013-08-20 06:47:00,
2013-08-20 01:52:00,66.3,62.6,29.93,SW,214,0.0,0.0,88,0.00,,---,0.00,VWS V14.00,2013-08-20 06:52:00,
2013-08-20 01:57:00,66.2,62.5,29.93,SW,214,0.0,0.0,88,0.00,,---,0.00,VWS V14.00,2013-08-20 06:57:00,
2013-08-20 02:02:00,66.1,62.5,29.93,SSW,208,0.0,0.0,88,0.00,,---,0.00,VWS V14.00,2013-08-20 07:02:00,
2013-08-20 02:07:00,66.1,62.5,29.93,SSW,208,0.0,0.0,88,0.00,,---,0.00,VWS V14.00,2013-08-20 07:07:00,
2013-08-20 02:12:00,66.0,62.3,29.93,SSW,208,0.0,0.0,88,0.00,,---,0.00,VWS V14.00,2013-08-20 07:12:00,
2013-08-20 02:17:00,66.0,62.7,29.93,SSW,209,0.0,0.0,89,0.00,,---,0.00,VWS V14.00,2013-08-20 07:17:00,
2013-08-20 02:22:00,66.2,62.5,29.93,SSW,198,0.0,2.0,88,0.00,,---,0.00,VWS V14.00,2013-08-20 07:22:00,
2013-08-20 02:27:00,66.3,62.6,29.93,SSW,198,1.0,1.0,88,0.00,,---,0.00,VWS V14.00,2013-08-20 07:27:00,
2013-08-20 02:32:00,66.3,62.6,29.93,SSW,198,0.0,0.0,88,0.00,,---,0.00,VWS V14.00,2013-08-20 07:32:00,
2013-08-20 02:37:00,66.3,62.6,29.93,SSW,192,0.0,2.0,88,0.00,,---,0.00,VWS V14.00,2013-08-20 07:37:00,
2013-08-20 02:42:00,66.3,62.6,29.93,SSW,192,0.0,0.0,88,0.00,,---,0.00,VWS V14.00,2013-08-20 07:42:00,
2013-08-20 02:47:00,66.1,62.5,29.93,SSW,192,0.0,0.0,88,0.00,,---,0.00,VWS V14.00,2013-08-20 07:47:00,
2013-08-20 02:52:00,66.0,62.3,29.93,SSW,192,0.0,1.0,88,0.00,,---,0.00,VWS V14.00,2013-08-20 07:52:00,
2013-08-20 02:57:00,65.8,62.2,29.93,SSW,192,0.0,0.0,88,0.00,,---,0.00,VWS V14.00,2013-08-20 07:57:00,
2013-08-20 03:02:00,65.7,62.4,29.93,South,188,0.0,2.0,89,0.00,,---,0.00,VWS V14.00,2013-08-20 08:02:00,
2013-08-20 03:07:00,65.6,62.3,29.93,South,184,0.0,2.0,89,0.00,,---,0.00,VWS V14.00,2013-08-20 08:07:00,
2013-08-20 03:12:00,65.4,62.1,29.93,South,184,0.0,0.0,89,0.00,,---,0.00,VWS V14.00,2013-08-20 08:12:00,
2013-08-20 03:17:00,65.3,62.3,29.93,SW,218,0.0,1.0,90,0.00,,---,0.00,VWS V14.00,2013-08-20 08:17:00,
2013-08-20 03:22:00,65.3,62.3,29.93,SSW,204,2.0,2.0,90,0.00,,---,0.00,VWS V14.00,2013-08-20 08:22:00,
2013-08-20 03:27:00,65.4,62.4,29.93,SW,217,0.0,2.0,90,0.00,,---,0.00,VWS V14.00,2013-08-20 08:27:00,
2013-08-20 03:32:00,65.4,62.4,29.93,SW,217,0.0,0.0,90,0.00,,---,0.00,VWS V14.00,2013-08-20 08:32:00,
2013-08-20 03:37:00,65.4,62.7,29.93,SW,217,0.0,1.0,91,0.00,,---,0.00,VWS V14.00,2013-08-20 08:37:00,
2013-08-20 03:42:00,65.4,62.7,29.93,SW,226,0.0,1.0,91,0.00,,---,0.00,VWS V14.00,2013-08-20 08:42:00,
2013-08-20 03:47:00,65.4,62.7,29.93,SW,221,0.0,1.0,91,0.00,,---,0.00,VWS V14.00,2013-08-20 08:47:00,
2013-08-20 03:52:00,65.4,62.7,29.93,SSW,211,0.0,0.0,91,0.00,,---,0.00,VWS V14.00,2013-08-20 08:52:00,
2013-08-20 03:57:00,65.3,62.6,29.93,SSW,198,0.0,2.0,91,0.00,,---,0.00,VWS V14.00,2013-08-20 08:57:00,
2013-08-20 04:02:00,65.3,62.6,29.93,SSW,204,0.0,0.0,91,0.00,,---,0.00,VWS V14.00,2013-08-20 09:02:00,
2013-08-20 04:07:00,65.3,62.6,29.94,SSW,207,0.0,1.0,91,0.00,,---,0.00,VWS V14.00,2013-08-20 09:07:00,
2013-08-20 04:12:00,65.3,62.6,29.94,SSW,207,0.0,0.0,91,0.00,,---,0.00,VWS V14.00,2013-08-20 09:12:00,
2013-08-20 04:17:00,65.3,62.6,29.94,SSW,200,0.0,0.0,91,0.00,,---,0.00,VWS V14.00,2013-08-20 09:17:00,
2013-08-20 04:22:00,65.2,62.5,29.94,SSW,200,0.0,0.0,91,0.00,,---,0.00,VWS V14.00,2013-08-20 09:22:00,
2013-08-20 04:27:00,65.2,62.5,29.94,South,182,1.0,2.0,91,0.00,,---,0.00,VWS V14.00,2013-08-20 09:27:00,
2013-08-20 04:32:00,65.1,62.4,29.94,South,183,0.0,1.0,91,0.00,,---,0.00,VWS V14.00,2013-08-20 09:32:00,
2013-08-20 04:37:00,65.0,62.3,29.94,South,183,0.0,0.0,91,0.00,,---,0.00,VWS V14.00,2013-08-20 09:37:00,
2013-08-20 04:42:00,64.9,62.2,29.94,SSW,202,0.0,1.0,91,0.00,,---,0.00,VWS V14.00,2013-08-20 09:42:00,
2013-08-20 04:47:00,64.9,62.5,29.94,SSW,210,0.0,0.0,92,0.00,,---,0.00,VWS V14.00,2013-08-20 09:47:00,
2013-08-20 04:52:00,65.0,62.6,29.94,SW,236,0.0,2.0,92,0.00,,---,0.00,VWS V14.00,2013-08-20 09:52:00,
2013-08-20 04:57:00,65.2,62.5,29.94,SW,231,0.0,1.0,91,0.00,,---,0.00,VWS V14.00,2013-08-20 09:57:00,
2013-08-20 05:02:00,65.2,62.5,29.94,SW,231,0.0,0.0,91,0.00,,---,0.00,VWS V14.00,2013-08-20 10:02:00,
2013-08-20 05:07:00,65.1,62.4,29.94,SW,225,0.0,0.0,91,0.00,,---,0.00,VWS V14.00,2013-08-20 10:07:00,
2013-08-20 05:12:00,65.1,62.4,29.94,SW,225,0.0,0.0,91,0.00,,---,0.00,VWS V14.00,2013-08-20 10:12:00,
2013-08-20 05:17:00,65.0,62.3,29.94,SSW,210,0.0,1.0,91,0.00,,---,0.00,VWS V14.00,2013-08-20 10:17:00,
2013-08-20 05:22:00,65.0,62.3,29.94,SSW,197,0.0,1.0,91,0.00,,---,0.00,VWS V14.00,2013-08-20 10:22:00,
2013-08-20 05:27:00,64.9,62.2,29.94,SSW,197,0.0,1.0,91,0.00,,---,0.00,VWS V14.00,2013-08-20 10:27:00,
2013-08-20 05:32:00,64.7,62.0,29.94,SSW,197,0.0,0.0,91,0.00,,---,0.00,VWS V14.00,2013-08-20 10:32:00,
2013-08-20 05:37:00,64.6,62.2,29.95,SSW,198,0.0,2.0,92,0.00,,---,0.00,VWS V14.00,2013-08-20 10:37:00,
2013-08-20 05:42:00,64.6,62.2,29.95,SW,214,0.0,4.0,92,0.00,,---,0.00,VWS V14.00,2013-08-20 10:42:00,
2013-08-20 05:47:00,64.7,62.3,29.95,SW,216,0.0,1.0,92,0.00,,---,0.00,VWS V14.00,2013-08-20 10:47:00,
2013-08-20 05:52:00,64.8,62.4,29.95,SSW,205,0.0,2.0,92,0.00,,---,0.00,VWS V14.00,2013-08-20 10:52:00,
2013-08-20 05:57:00,64.8,62.4,29.95,SSW,202,3.0,3.0,92,0.00,,---,0.00,VWS V14.00,2013-08-20 10:57:00,
2013-08-20 06:02:00,64.8,62.4,29.95,SW,219,0.0,3.0,92,0.00,,---,0.00,VWS V14.00,2013-08-20 11:02:00,
2013-08-20 06:07:00,64.8,62.1,29.96,SW,221,0.0,3.0,91,0.00,,---,0.00,VWS V14.00,2013-08-20 11:07:00,
2013-08-20 06:12:00,64.7,62.0,29.96,SSW,207,0.0,2.0,91,0.00,,---,0.00,VWS V14.00,2013-08-20 11:12:00,
2013-08-20 06:17:00,64.7,62.3,29.96,SSW,194,1.0,2.0,92,0.00,,---,0.00,VWS V14.00,2013-08-20 11:17:00,
2013-08-20 06:22:00,64.7,62.3,29.96,SSW,193,0.0,1.0,92,0.00,,---,0.00,VWS V14.00,2013-08-20 11:22:00,
2013-08-20 06:27:00,64.8,62.4,29.96,South,184,1.0,1.0,92,0.00,,---,0.00,VWS V14.00,2013-08-20 11:27:00,
2013-08-20 06:32:00,64.9,62.5,29.96,SSW,194,1.0,3.0,92,0.00,,---,0.00,VWS V14.00,2013-08-20 11:32:00,
2013-08-20 06:37:00,64.9,62.5,29.97,SSW,198,2.0,2.0,92,0.00,,---,0.00,VWS V14.00,2013-08-20 11:37:00,
2013-08-20 06:42:00,65.0,62.6,29.97,SSW,212,0.0,3.0,92,0.00,,---,0.00,VWS V14.00,2013-08-20 11:42:00,
2013-08-20 06:47:00,65.1,62.7,29.97,SSW,200,0.0,4.0,92,0.00,,---,0.00,VWS V14.00,2013-08-20 11:47:00,
2013-08-20 06:52:00,65.2,62.5,29.97,SSW,193,0.0,3.0,91,0.00,,---,0.00,VWS V14.00,2013-08-20 11:52:00,
2013-08-20 06:57:00,65.3,62.6,29.97,SSW,202,0.0,3.0,91,0.00,,---,0.00,VWS V14.00,2013-08-20 11:57:00,
2013-08-20 07:02:00,65.5,62.8,29.97,SSW,194,0.0,4.0,91,0.00,,---,0.00,VWS V14.00,2013-08-20 12:02:00,
2013-08-20 07:07:00,65.8,63.1,29.97,SW,218,1.0,4.0,91,0.00,,---,0.00,VWS V14.00,2013-08-20 12:07:00,
2013-08-20 07:12:00,66.1,63.1,29.97,SSW,204,1.0,2.0,90,0.00,,---,0.00,VWS V14.00,2013-08-20 12:12:00,
2013-08-20 07:17:00,66.4,63.4,29.97,SSW,196,1.0,4.0,90,0.00,,---,0.00,VWS V14.00,2013-08-20 12:17:00,
2013-08-20 07:22:00,66.7,63.4,29.97,SW,221,5.0,5.0,89,0.00,,---,0.00,VWS V14.00,2013-08-20 12:22:00,
2013-08-20 07:27:00,66.9,63.6,29.97,SSW,213,2.0,3.0,89,0.00,,---,0.00,VWS V14.00,2013-08-20 12:27:00,
2013-08-20 07:32:00,67.2,63.5,29.97,SW,227,1.0,3.0,88,0.00,,---,0.00,VWS V14.00,2013-08-20 12:32:00,
2013-08-20 07:37:00,67.5,63.8,29.98,SSW,197,1.0,4.0,88,0.00,,---,0.00,VWS V14.00,2013-08-20 12:37:00,
2013-08-20 07:42:00,67.9,63.9,29.98,SSW,192,1.0,4.0,87,0.00,,---,0.00,VWS V14.00,2013-08-20 12:42:00,
2013-08-20 07:47:00,68.3,64.3,29.98,SW,229,2.0,3.0,87,0.00,,---,0.00,VWS V14.00,2013-08-20 12:47:00,
2013-08-20 07:52:00,68.7,64.3,29.98,SSW,206,1.0,4.0,86,0.00,,---,0.00,VWS V14.00,2013-08-20 12:52:00,
2013-08-20 07:57:00,69.2,64.8,29.98,South,190,2.0,3.0,86,0.00,,---,0.00,VWS V14.00,2013-08-20 12:57:00,
2013-08-20 08:02:00,69.6,64.9,29.98,South,182,1.0,4.0,85,0.00,,---,0.00,VWS V14.00,2013-08-20 13:02:00,
2013-08-20 08:07:00,69.9,65.2,29.98,SW,217,4.0,4.0,85,0.00,,---,0.00,VWS V14.00,2013-08-20 13:07:00,
2013-08-20 08:12:00,70.3,65.2,29.98,South,179,2.0,4.0,84,0.00,,---,0.00,VWS V14.00,2013-08-20 13:12:00,
2013-08-20 08:17:00,70.8,65.4,29.98,WSW,244,3.0,6.0,83,0.00,,---,0.00,VWS V14.00,2013-08-20 13:17:00,
2013-08-20 08:22:00,71.4,65.6,29.98,SW,225,2.0,4.0,82,0.00,,---,0.00,VWS V14.00,2013-08-20 13:22:00,
2013-08-20 08:27:00,72.0,65.9,29.98,WSW,247,1.0,7.0,81,0.00,,---,0.00,VWS V14.00,2013-08-20 13:27:00,
2013-08-20 08:32:00,72.4,65.5,29.98,SW,229,4.0,9.0,79,0.00,,---,0.00,VWS V14.00,2013-08-20 13:32:00,
2013-08-20 08:37:00,72.6,65.7,29.99,SSW,196,6.0,7.0,79,0.00,,---,0.00,VWS V14.00,2013-08-20 13:37:00,
2013-08-20 08:42:00,72.9,66.4,29.99,WSW,246,2.0,6.0,80,0.00,,---,0.00,VWS V14.00,2013-08-20 13:42:00,
2013-08-20 08:47:00,73.1,66.2,29.99,SW,221,3.0,5.0,79,0.00,,---,0.00,VWS V14.00,2013-08-20 13:47:00,
2013-08-20 08:52:00,73.4,66.1,29.98,SW,222,3.0,8.0,78,0.00,,---,0.00,VWS V14.00,2013-08-20 13:52:00,
2013-08-20 08:57:00,73.7,66.4,29.98,SSW,196,0.0,7.0,78,0.00,,---,0.00,VWS V14.00,2013-08-20 13:57:00,
2013-08-20 09:02:00,74.1,66.4,29.98,SSE,165,2.0,6.0,77,0.00,,---,0.00,VWS V14.00,2013-08-20 14:02:00,
2013-08-20 09:07:00,74.6,66.9,29.98,SSW,205,1.0,3.0,77,0.00,,---,0.00,VWS V14.00,2013-08-20 14:07:00,
2013-08-20 09:12:00,74.9,66.4,29.98,SW,221,6.0,8.0,75,0.00,,---,0.00,VWS V14.00,2013-08-20 14:12:00,
2013-08-20 09:17:00,75.1,66.2,29.98,SW,224,0.0,8.0,74,0.00,,---,0.00,VWS V14.00,2013-08-20 14:17:00,
2013-08-20 09:22:00,75.5,67.0,29.98,SSW,208,1.0,5.0,75,0.00,,---,0.00,VWS V14.00,2013-08-20 14:22:00,
2013-08-20 09:27:00,76.1,67.2,29.98,SW,235,2.0,6.0,74,0.00,,---,0.00,VWS V14.00,2013-08-20 14:27:00,
2013-08-20 09:32:00,76.2,66.9,29.98,SSW,208,3.0,5.0,73,0.00,,---,0.00,VWS V14.00,2013-08-20 14:32:00,
2013-08-20 09:37:00,76.5,66.8,29.98,West,263,6.0,8.0,72,0.00,,---,0.00,VWS V14.00,2013-08-20 14:37:00,
2013-08-20 09:42:00,76.4,66.7,29.98,West,259,1.0,10.0,72,0.00,,---,0.00,VWS V14.00,2013-08-20 14:42:00,
2013-08-20 09:47:00,76.7,66.6,29.98,SSW,197,4.0,7.0,71,0.00,,---,0.00,VWS V14.00,2013-08-20 14:47:00,
2013-08-20 09:52:00,76.9,66.4,29.98,WSW,256,4.0,11.0,70,0.00,,---,0.00,VWS V14.00,2013-08-20 14:52:00,
2013-08-20 09:57:00,77.1,67.0,29.98,SW,214,6.0,6.0,71,0.00,,---,0.00,VWS V14.00,2013-08-20 14:57:00,
2013-08-20 10:02:00,77.4,67.3,29.98,SW,226,4.0,8.0,71,0.00,,---,0.00,VWS V14.00,2013-08-20 15:02:00,
2013-08-20 10:07:00,77.5,66.9,29.98,South,172,4.0,9.0,70,0.00,,---,0.00,VWS V14.00,2013-08-20 15:07:00,
2013-08-20 10:12:00,77.6,67.1,29.98,WSW,237,3.0,7.0,70,0.00,,---,0.00,VWS V14.00,2013-08-20 15:12:00,
2013-08-20 10:17:00,78.0,67.0,29.98,SSW,210,1.0,4.0,69,0.00,,---,0.00,VWS V14.00,2013-08-20 15:17:00,
2013-08-20 10:22:00,78.3,66.9,29.98,SW,227,6.0,12.0,68,0.00,,---,0.00,VWS V14.00,2013-08-20 15:22:00,
2013-08-20 10:27:00,78.4,67.0,29.98,SW,225,8.0,10.0,68,0.00,,---,0.00,VWS V14.00,2013-08-20 15:27:00,
2013-08-20 10:32:00,78.6,67.2,29.98,South,179,4.0,9.0,68,0.00,,---,0.00,VWS V14.00,2013-08-20 15:32:00,
2013-08-20 10:37:00,78.5,66.6,29.98,SW,225,2.0,9.0,67,0.00,,---,0.00,VWS V14.00,2013-08-20 15:37:00,
2013-08-20 10:42:00,79.0,67.1,29.98,SW,222,5.0,7.0,67,0.00,,---,0.00,VWS V14.00,2013-08-20 15:42:00,
2013-08-20 10:47:00,79.2,67.3,29.98,SW,232,7.0,7.0,67,0.00,,---,0.00,VWS V14.00,2013-08-20 15:47:00,
2013-08-20 10:52:00,79.4,67.1,29.98,South,169,6.0,9.0,66,0.00,,---,0.00,VWS V14.00,2013-08-20 15:52:00,
2013-08-20 10:57:00,79.4,66.2,29.98,SW,234,2.0,8.0,64,0.00,,---,0.00,VWS V14.00,2013-08-20 15:57:00,
2013-08-20 11:02:00,79.4,66.6,29.98,South,171,6.0,12.0,65,0.00,,---,0.00,VWS V14.00,2013-08-20 16:02:00,
2013-08-20 11:07:00,79.6,66.8,29.98,SW,214,5.0,8.0,65,0.00,,---,0.00,VWS V14.00,2013-08-20 16:07:00,
2013-08-20 11:12:00,80.1,66.4,29.98,SW,215,4.0,12.0,63,0.00,,---,0.00,VWS V14.00,2013-08-20 16:12:00,
2013-08-20 11:17:00,80.1,66.4,29.98,WNW,302,3.0,10.0,63,0.00,,---,0.00,VWS V14.00,2013-08-20 16:17:00,
2013-08-20 11:22:00,80.0,66.3,29.98,SW,225,10.0,10.0,63,0.00,,---,0.00,VWS V14.00,2013-08-20 16:22:00,
2013-08-20 11:27:00,80.2,66.9,29.98,South,179,4.0,7.0,64,0.00,,---,0.00,VWS V14.00,2013-08-20 16:27:00,
2013-08-20 11:31:00,80.5,66.3,29.98,SW,226,2.0,8.0,62,0.00,,---,0.00,VWS V14.00,2013-08-20 16:31:00,
2013-08-20 11:36:00,80.9,66.7,29.97,South,185,4.0,7.0,62,0.00,,---,0.00,VWS V14.00,2013-08-20 16:36:00,
2013-08-20 11:41:00,81.3,66.6,29.97,SW,229,9.0,9.0,61,0.00,,---,0.00,VWS V14.00,2013-08-20 16:41:00,
2013-08-20 11:46:00,81.0,65.8,29.97,SSW,192,3.0,11.0,60,0.00,,---,0.00,VWS V14.00,2013-08-20 16:46:00,
2013-08-20 11:51:00,81.2,66.0,29.97,SW,226,5.0,9.0,60,0.00,,---,0.00,VWS V14.00,2013-08-20 16:51:00,
2013-08-20 11:56:00,81.4,65.7,29.97,South,173,6.0,10.0,59,0.00,,---,0.00,VWS V14.00,2013-08-20 16:56:00,
2013-08-20 12:01:00,81.2,66.0,29.97,SW,221,5.0,7.0,60,0.00,,---,0.00,VWS V14.00,2013-08-20 17:01:00,
2013-08-20 12:06:00,81.7,66.9,29.97,SW,215,6.0,6.0,61,0.00,,---,0.00,VWS V14.00,2013-08-20 17:06:00,
2013-08-20 12:11:00,82.3,66.1,29.97,West,275,5.0,9.0,58,0.00,,---,0.00,VWS V14.00,2013-08-20 17:11:00,
2013-08-20 12:16:00,82.1,66.4,29.97,SSW,209,5.0,11.0,59,0.00,,---,0.00,VWS V14.00,2013-08-20 17:16:00,
2013-08-20 12:21:00,81.6,65.9,29.97,South,188,3.0,9.0,59,0.00,,---,0.00,VWS V14.00,2013-08-20 17:21:00,
2013-08-20 12:26:00,81.7,66.0,29.97,SW,229,3.0,10.0,59,0.00,,---,0.00,VWS V14.00,2013-08-20 17:26:00,
2013-08-20 12:31:00,81.8,66.6,29.97,WSW,240,7.0,9.0,60,0.00,,---,0.00,VWS V14.00,2013-08-20 17:31:00,
2013-08-20 12:36:00,81.2,64.5,29.96,SSE,158,2.0,7.0,57,0.00,,---,0.00,VWS V14.00,2013-08-20 17:36:00,
2013-08-20 12:41:00,81.3,65.6,29.96,SW,228,8.0,8.0,59,0.00,,---,0.00,VWS V14.00,2013-08-20 17:41:00,
2013-08-20 12:46:00,81.7,65.5,29.96,SW,219,9.0,12.0,58,0.00,,---,0.00,VWS V14.00,2013-08-20 17:46:00,
2013-08-20 12:51:00,81.9,65.2,29.95,WSW,248,7.0,11.0,57,0.00,,---,0.00,VWS V14.00,2013-08-20 17:51:00,
2013-08-20 12:56:00,82.0,65.3,29.95,NW,306,5.0,12.0,57,0.00,,---,0.00,VWS V14.00,2013-08-20 17:56:00,
2013-08-20 13:01:00,82.4,65.1,29.95,SW,232,9.0,12.0,56,0.00,,---,0.00,VWS V14.00,2013-08-20 18:01:00,
2013-08-20 13:06:00,82.7,65.9,29.95,WSW,243,3.0,7.0,57,0.00,,---,0.00,VWS V14.00,2013-08-20 18:06:00,
2013-08-20 13:11:00,82.8,65.5,29.95,West,271,4.0,12.0,56,0.00,,---,0.00,VWS V14.00,2013-08-20 18:11:00,
2013-08-20 13:16:00,83.2,64.3,29.95,WSW,241,3.0,13.0,53,0.00,,---,0.00,VWS V14.00,2013-08-20 18:16:00,
2013-08-20 13:21:00,83.3,63.9,29.95,SSE,152,7.0,9.0,52,0.00,,---,0.00,VWS V14.00,2013-08-20 18:21:00,
2013-08-20 13:26:00,83.4,64.5,29.95,WSW,246,5.0,10.0,53,0.00,,---,0.00,VWS V14.00,2013-08-20 18:26:00,
2013-08-20 13:31:00,83.2,64.8,29.95,SSW,200,3.0,6.0,54,0.00,,---,0.00,VWS V14.00,2013-08-20 18:31:00,
2013-08-20 13:36:00,83.3,64.4,29.94,SSE,161,7.0,7.0,53,0.00,,---,0.00,VWS V14.00,2013-08-20 18:36:00,
2013-08-20 13:41:00,83.6,64.1,29.94,WNW,284,3.0,6.0,52,0.00,,---,0.00,VWS V14.00,2013-08-20 18:41:00,
2013-08-20 13:46:00,84.0,64.5,29.94,SW,216,7.0,12.0,52,0.00,,---,0.00,VWS V14.00,2013-08-20 18:46:00,
2013-08-20 13:51:00,84.2,63.0,29.94,SW,216,4.0,11.0,49,0.00,,---,0.00,VWS V14.00,2013-08-20 18:51:00,
2013-08-20 13:56:00,84.2,63.6,29.94,SW,233,8.0,11.0,50,0.00,,---,0.00,VWS V14.00,2013-08-20 18:56:00,
2013-08-20 14:01:00,84.2,63.6,29.94,SSW,198,4.0,8.0,50,0.00,,---,0.00,VWS V14.00,2013-08-20 19:01:00,
2013-08-20 14:06:00,84.6,65.1,29.94,SSW,213,11.0,11.0,52,0.00,,---,0.00,VWS V14.00,2013-08-20 19:06:00,
2013-08-20 14:11:00,84.0,63.9,29.94,SW,228,5.0,12.0,51,0.00,,---,0.00,VWS V14.00,2013-08-20 19:11:00,
2013-08-20 14:16:00,84.0,63.4,29.94,SW,227,6.0,14.0,50,0.00,,---,0.00,VWS V14.00,2013-08-20 19:16:00,
2013-08-20 14:21:00,83.4,64.0,29.94,SSE,158,5.0,10.0,52,0.00,,---,0.00,VWS V14.00,2013-08-20 19:21:00,
2013-08-20 14:26:00,83.4,63.4,29.94,SSW,202,5.0,9.0,51,0.00,,---,0.00,VWS V14.00,2013-08-20 19:26:00,
2013-08-20 14:31:00,83.8,64.3,29.94,SSE,168,3.0,5.0,52,0.00,,---,0.00,VWS V14.00,2013-08-20 19:31:00,
2013-08-20 14:36:00,84.0,63.9,29.93,West,269,6.0,6.0,51,0.00,,---,0.00,VWS V14.00,2013-08-20 19:36:00,
2013-08-20 14:41:00,84.7,65.1,29.93,WSW,246,4.0,9.0,52,0.00,,---,0.00,VWS V14.00,2013-08-20 19:41:00,
2013-08-20 14:46:00,84.6,63.9,29.93,SSW,209,4.0,8.0,50,0.00,,---,0.00,VWS V14.00,2013-08-20 19:46:00,
2013-08-20 14:51:00,84.0,63.9,29.93,South,169,4.0,10.0,51,0.00,,---,0.00,VWS V14.00,2013-08-20 19:51:00,
2013-08-20 14:56:00,84.3,64.2,29.93,SSE,161,4.0,7.0,51,0.00,,---,0.00,VWS V14.00,2013-08-20 19:56:00,
2013-08-20 15:01:00,84.4,63.8,29.93,SW,224,4.0,11.0,50,0.00,,---,0.00,VWS V14.00,2013-08-20 20:01:00,
2013-08-20 15:06:00,83.9,63.8,29.92,SSE,151,7.0,11.0,51,0.00,,---,0.00,VWS V14.00,2013-08-20 20:06:00,
2013-08-20 15:11:00,83.6,64.1,29.92,SSE,161,2.0,6.0,52,0.00,,---,0.00,VWS V14.00,2013-08-20 20:11:00,
2013-08-20 15:16:00,84.6,63.3,29.92,SSW,192,9.0,13.0,49,0.00,,---,0.00,VWS V14.00,2013-08-20 20:16:00,
2013-08-20 15:21:00,84.5,63.3,29.92,South,184,4.0,8.0,49,0.00,,---,0.00,VWS V14.00,2013-08-20 20:21:00,
2013-08-20 15:26:00,84.4,63.8,29.92,SSW,193,4.0,9.0,50,0.00,,---,0.00,VWS V14.00,2013-08-20 20:26:00,
2013-08-20 15:31:00,84.4,63.8,29.92,West,263,11.0,13.0,50,0.00,,---,0.00,VWS V14.00,2013-08-20 20:31:00,
2013-08-20 15:36:00,84.4,63.2,29.92,WNW,289,2.0,9.0,49,0.00,,---,0.00,VWS V14.00,2013-08-20 20:36:00,
2013-08-20 15:41:00,84.7,65.1,29.92,SSE,159,8.0,8.0,52,0.00,,---,0.00,VWS V14.00,2013-08-20 20:41:00,
2013-08-20 15:46:00,84.5,65.0,29.92,South,191,6.0,12.0,52,0.00,,---,0.00,VWS V14.00,2013-08-20 20:46:00,
2013-08-20 15:51:00,84.3,63.7,29.92,South,184,5.0,10.0,50,0.00,,---,0.00,VWS V14.00,2013-08-20 20:51:00,
2013-08-20 15:56:00,83.8,64.9,29.92,South,181,3.0,11.0,53,0.00,,---,0.00,VWS V14.00,2013-08-20 20:56:00,
2013-08-20 16:01:00,84.0,64.5,29.92,SSW,211,3.0,9.0,52,0.00,,---,0.00,VWS V14.00,2013-08-20 21:01:00,
2013-08-20 16:06:00,83.8,64.9,29.91,South,173,4.0,7.0,53,0.00,,---,0.00,VWS V14.00,2013-08-20 21:06:00,
2013-08-20 16:11:00,83.8,64.9,29.91,SSW,202,6.0,10.0,53,0.00,,---,0.00,VWS V14.00,2013-08-20 21:11:00,
2013-08-20 16:16:00,83.8,64.3,29.91,South,173,6.0,11.0,52,0.00,,---,0.00,VWS V14.00,2013-08-20 21:16:00,
2013-08-20 16:21:00,84.1,65.7,29.91,SSW,207,2.0,5.0,54,0.00,,---,0.00,VWS V14.00,2013-08-20 21:21:00,
2013-08-20 16:26:00,84.3,64.8,29.91,SW,229,5.0,12.0,52,0.00,,---,0.00,VWS V14.00,2013-08-20 21:26:00,
2013-08-20 16:31:00,84.2,65.2,29.91,South,184,2.0,6.0,53,0.00,,---,0.00,VWS V14.00,2013-08-20 21:31:00,
2013-08-20 16:36:00,84.0,65.1,29.91,SSW,195,5.0,9.0,53,0.00,,---,0.00,VWS V14.00,2013-08-20 21:36:00,
2013-08-20 16:41:00,83.8,64.9,29.91,SSE,159,10.0,10.0,53,0.00,,---,0.00,VWS V14.00,2013-08-20 21:41:00,
2013-08-20 16:46:00,83.7,64.2,29.91,SSE,161,9.0,13.0,52,0.00,,---,0.00,VWS V14.00,2013-08-20 21:46:00,
2013-08-20 16:51:00,83.2,64.8,29.91,South,183,5.0,8.0,54,0.00,,---,0.00,VWS V14.00,2013-08-20 21:51:00,
2013-08-20 16:56:00,83.1,64.8,29.91,SW,230,3.0,13.0,54,0.00,,---,0.00,VWS V14.00,2013-08-20 21:56:00,
2013-08-20 17:01:00,83.3,65.5,29.91,South,182,3.0,10.0,55,0.00,,---,0.00,VWS V14.00,2013-08-20 22:01:00,
2013-08-20 17:06:00,83.3,65.5,29.91,WSW,241,4.0,11.0,55,0.00,,---,0.00,VWS V14.00,2013-08-20 22:06:00,
2013-08-20 17:11:00,83.6,65.7,29.91,WSW,240,6.0,7.0,55,0.00,,---,0.00,VWS V14.00,2013-08-20 22:11:00,
2013-08-20 17:16:00,83.6,65.7,29.91,SSW,211,7.0,9.0,55,0.00,,---,0.00,VWS V14.00,2013-08-20 22:16:00,
2013-08-20 17:21:00,83.3,65.5,29.91,SW,233,6.0,9.0,55,0.00,,---,0.00,VWS V14.00,2013-08-20 22:21:00,
2013-08-20 17:26:00,83.2,65.9,29.91,SW,218,5.0,8.0,56,0.00,,---,0.00,VWS V14.00,2013-08-20 22:26:00,
2013-08-20 17:31:00,83.1,65.8,29.91,SW,235,1.0,9.0,56,0.00,,---,0.00,VWS V14.00,2013-08-20 22:31:00,
2013-08-20 17:36:00,82.9,65.6,29.91,WSW,238,8.0,11.0,56,0.00,,---,0.00,VWS V14.00,2013-08-20 22:36:00,
2013-08-20 17:41:00,82.8,65.5,29.91,WNW,286,7.0,9.0,56,0.00,,---,0.00,VWS V14.00,2013-08-20 22:41:00,
2013-08-20 17:46:00,83.1,65.8,29.91,SSW,199,5.0,11.0,56,0.00,,---,0.00,VWS V14.00,2013-08-20 22:46:00,
2013-08-20 17:51:00,83.0,65.7,29.91,South,173,2.0,7.0,56,0.00,,---,0.00,VWS V14.00,2013-08-20 22:51:00,
2013-08-20 17:56:00,82.9,65.6,29.91,SW,225,8.0,8.0,56,0.00,,---,0.00,VWS V14.00,2013-08-20 22:56:00,
2013-08-20 18:01:00,82.4,65.7,29.91,South,174,4.0,8.0,57,0.00,,---,0.00,VWS V14.00,2013-08-20 23:01:00,
2013-08-20 18:06:00,82.3,65.6,29.91,SSW,209,7.0,11.0,57,0.00,,---,0.00,VWS V14.00,2013-08-20 23:06:00,
2013-08-20 18:11:00,82.1,65.4,29.91,South,171,7.0,13.0,57,0.00,,---,0.00,VWS V14.00,2013-08-20 23:11:00,
2013-08-20 18:16:00,81.9,65.7,29.91,SSW,211,8.0,12.0,58,0.00,,---,0.00,VWS V14.00,2013-08-20 23:16:00,
2013-08-20 18:21:00,81.8,65.1,29.91,SSE,151,6.0,9.0,57,0.00,,---,0.00,VWS V14.00,2013-08-20 23:21:00,
2013-08-20 18:26:00,81.8,65.6,29.91,SSW,205,1.0,8.0,58,0.00,,---,0.00,VWS V14.00,2013-08-20 23:26:00,
2013-08-20 18:31:00,81.6,65.4,29.91,SW,216,6.0,8.0,58,0.00,,---,0.00,VWS V14.00,2013-08-20 23:31:00,
2013-08-20 18:36:00,81.5,65.3,29.90,WSW,248,5.0,7.0,58,0.00,,---,0.00,VWS V14.00,2013-08-20 23:36:00,
2013-08-20 18:41:00,81.3,65.6,29.90,South,175,2.0,7.0,59,0.00,,---,0.00,VWS V14.00,2013-08-20 23:41:00,
2013-08-20 18:46:00,81.1,65.4,29.90,WSW,238,7.0,10.0,59,0.00,,---,0.00,VWS V14.00,2013-08-20 23:46:00,
2013-08-20 18:51:00,81.0,65.8,29.90,SSW,196,4.0,9.0,60,0.00,,---,0.00,VWS V14.00,2013-08-20 23:51:00,
2013-08-20 18:56:00,80.9,65.7,29.90,SSW,205,5.0,7.0,60,0.00,,---,0.00,VWS V14.00,2013-08-20 23:56:00,
2013-08-20 19:01:00,80.8,65.6,29.90,South,188,6.0,7.0,60,0.00,,---,0.00,VWS V14.00,2013-08-21 00:01:00,
2013-08-20 19:06:00,80.6,65.4,29.91,SW,219,5.0,6.0,60,0.00,,---,0.00,VWS V14.00,2013-08-21 00:06:00,
2013-08-20 19:10:00,80.4,65.7,29.91,SSW,200,0.0,5.0,61,0.00,,---,0.00,VWS V14.00,2013-08-21 00:10:00,
2013-08-20 19:15:00,80.2,65.5,29.91,SSW,196,0.0,5.0,61,0.00,,---,0.00,VWS V14.00,2013-08-21 00:15:00,
2013-08-20 19:20:00,80.0,65.8,29.91,SSW,195,1.0,5.0,62,0.00,,---,0.00,VWS V14.00,2013-08-21 00:20:00,
2013-08-20 19:25:00,79.7,65.5,29.91,South,187,4.0,6.0,62,0.00,,---,0.00,VWS V14.00,2013-08-21 00:25:00,
2013-08-20 19:30:00,79.4,65.7,29.91,SSW,213,2.0,3.0,63,0.00,,---,0.00,VWS V14.00,2013-08-21 00:30:00,
2013-08-20 19:35:00,79.3,65.6,29.91,SSW,194,1.0,6.0,63,0.00,,---,0.00,VWS V14.00,2013-08-21 00:35:00,
2013-08-20 19:40:00,79.1,65.9,29.91,South,188,0.0,2.0,64,0.00,,---,0.00,VWS V14.00,2013-08-21 00:40:00,
2013-08-20 19:45:00,78.9,65.7,29.91,South,182,1.0,2.0,64,0.00,,---,0.00,VWS V14.00,2013-08-21 00:45:00,
2013-08-20 19:50:00,78.7,65.5,29.91,SSW,200,0.0,2.0,64,0.00,,---,0.00,VWS V14.00,2013-08-21 00:50:00,
2013-08-20 19:55:00,78.5,65.8,29.91,South,185,0.0,2.0,65,0.00,,---,0.00,VWS V14.00,2013-08-21 00:55:00,
2013-08-20 20:00:00,78.4,65.7,29.91,SSW,192,3.0,3.0,65,0.00,,---,0.00,VWS V14.00,2013-08-21 01:00:00,
2013-08-20 20:05:00,78.2,65.9,29.91,SSE,166,0.0,1.0,66,0.00,,---,0.00,VWS V14.00,2013-08-21 01:05:00,
2013-08-20 20:10:00,78.0,65.7,29.91,South,169,1.0,2.0,66,0.00,,---,0.00,VWS V14.00,2013-08-21 01:10:00,
2013-08-20 20:15:00,77.8,65.5,29.91,South,182,0.0,2.0,66,0.00,,---,0.00,VWS V14.00,2013-08-21 01:15:00,
2013-08-20 20:19:00,77.6,65.8,29.91,South,176,1.0,2.0,67,0.00,,---,0.00,VWS V14.00,2013-08-21 01:19:00,
2013-08-20 20:24:00,77.4,65.6,29.91,SSE,165,1.0,2.0,67,0.00,,---,0.00,VWS V14.00,2013-08-21 01:24:00,
2013-08-20 20:29:00,77.2,65.8,29.91,South,178,0.0,1.0,68,0.00,,---,0.00,VWS V14.00,2013-08-21 01:29:00,
2013-08-20 20:34:00,77.0,65.6,29.91,South,186,3.0,3.0,68,0.00,,---,0.00,VWS V14.00,2013-08-21 01:34:00,
2013-08-20 20:39:00,76.8,65.9,29.92,SSE,161,0.0,2.0,69,0.00,,---,0.00,VWS V14.00,2013-08-21 01:39:00,
2013-08-20 20:44:00,76.6,65.7,29.92,SSW,206,1.0,3.0,69,0.00,,---,0.00,VWS V14.00,2013-08-21 01:44:00,
2013-08-20 20:49:00,76.4,65.5,29.92,SSE,160,1.0,4.0,69,0.00,,---,0.00,VWS V14.00,2013-08-21 01:49:00,
2013-08-20 20:54:00,76.3,65.8,29.92,South,187,1.0,2.0,70,0.00,,---,0.00,VWS V14.00,2013-08-21 01:54:00,
2013-08-20 20:59:00,76.2,65.7,29.92,South,177,1.0,3.0,70,0.00,,---,0.00,VWS V14.00,2013-08-21 01:59:00,
2013-08-20 21:04:00,76.2,65.7,29.92,South,178,1.0,3.0,70,0.00,,---,0.00,VWS V14.00,2013-08-21 02:04:00,
2013-08-20 21:09:00,76.1,65.6,29.92,SSW,196,1.0,2.0,70,0.00,,---,0.00,VWS V14.00,2013-08-21 02:09:00,
2013-08-20 21:14:00,76.0,65.5,29.92,SSW,209,4.0,4.0,70,0.00,,---,0.00,VWS V14.00,2013-08-21 02:14:00,
2013-08-20 21:19:00,75.9,65.4,29.92,South,171,1.0,3.0,70,0.00,,---,0.00,VWS V14.00,2013-08-21 02:19:00,
2013-08-20 21:24:00,75.8,65.3,29.92,South,171,2.0,3.0,70,0.00,,---,0.00,VWS V14.00,2013-08-21 02:24:00,
2013-08-20 21:29:00,75.6,65.5,29.92,SSE,163,2.0,3.0,71,0.00,,---,0.00,VWS V14.00,2013-08-21 02:29:00,
2013-08-20 21:34:00,75.2,65.6,29.92,SSE,164,1.0,3.0,72,0.00,,---,0.00,VWS V14.00,2013-08-21 02:34:00,
2013-08-20 21:39:00,74.9,65.3,29.92,SSE,163,2.0,2.0,72,0.00,,---,0.00,VWS V14.00,2013-08-21 02:39:00,
2013-08-20 21:44:00,74.8,65.2,29.92,SSW,193,1.0,3.0,72,0.00,,---,0.00,VWS V14.00,2013-08-21 02:44:00,
2013-08-20 21:49:00,74.7,65.1,29.92,South,175,2.0,2.0,72,0.00,,---,0.00,VWS V14.00,2013-08-21 02:49:00,
2013-08-20 21:54:00,74.7,65.1,29.92,South,170,0.0,2.0,72,0.00,,---,0.00,VWS V14.00,2013-08-21 02:54:00,
2013-08-20 21:59:00,74.6,65.0,29.92,SSE,148,3.0,3.0,72,0.00,,---,0.00,VWS V14.00,2013-08-21 02:59:00,
2013-08-20 22:04:00,74.5,65.3,29.92,South,177,0.0,2.0,73,0.00,,---,0.00,VWS V14.00,2013-08-21 03:04:00,
2013-08-20 22:09:00,74.3,65.1,29.92,South,179,0.0,2.0,73,0.00,,---,0.00,VWS V14.00,2013-08-21 03:09:00,
2013-08-20 22:14:00,74.1,64.9,29.92,SSE,167,0.0,3.0,73,0.00,,---,0.00,VWS V14.00,2013-08-21 03:14:00,
2013-08-20 22:19:00,74.0,65.2,29.92,South,186,1.0,4.0,74,0.00,,---,0.00,VWS V14.00,2013-08-21 03:19:00,
2013-08-20 22:24:00,73.8,65.0,29.92,South,190,0.0,3.0,74,0.00,,---,0.00,VWS V14.00,2013-08-21 03:24:00,
2013-08-20 22:29:00,73.7,64.9,29.92,South,179,0.0,2.0,74,0.00,,---,0.00,VWS V14.00,2013-08-21 03:29:00,
2013-08-20 22:34:00,73.5,65.1,29.92,SSE,167,1.0,2.0,75,0.00,,---,0.00,VWS V14.00,2013-08-21 03:34:00,
2013-08-20 22:39:00,73.2,64.8,29.92,South,191,0.0,2.0,75,0.00,,---,0.00,VWS V14.00,2013-08-21 03:39:00,
2013-08-20 22:44:00,73.0,65.0,29.92,South,190,1.0,2.0,76,0.00,,---,0.00,VWS V14.00,2013-08-21 03:44:00,
2013-08-20 22:49:00,72.8,64.8,29.92,South,182,0.0,1.0,76,0.00,,---,0.00,VWS V14.00,2013-08-21 03:49:00,
2013-08-20 22:54:00,72.8,64.8,29.92,SSE,161,0.0,1.0,76,0.00,,---,0.00,VWS V14.00,2013-08-21 03:54:00,
2013-08-20 22:59:00,72.6,64.6,29.92,South,178,1.0,2.0,76,0.00,,---,0.00,VWS V14.00,2013-08-21 03:59:00,
2013-08-20 23:01:00,72.6,64.6,29.92,SSW,195,2.0,3.0,76,0.00,,---,0.00,VWS V14.00,2013-08-21 04:01:00,
2013-08-20 23:06:00,72.4,64.4,29.92,South,169,0.0,2.0,76,0.00,,---,0.00,VWS V14.00,2013-08-21 04:06:00,
2013-08-20 23:11:00,72.3,64.7,29.92,SW,221,0.0,3.0,77,0.00,,---,0.00,VWS V14.00,2013-08-21 04:11:00,
2013-08-20 23:16:00,72.2,64.6,29.92,SSW,205,2.0,3.0,77,0.00,,---,0.00,VWS V14.00,2013-08-21 04:16:00,
2013-08-20 23:21:00,72.1,64.5,29.92,SSW,192,1.0,1.0,77,0.00,,---,0.00,VWS V14.00,2013-08-21 04:21:00,
2013-08-20 23:26:00,72.1,64.9,29.92,SSW,194,1.0,3.0,78,0.00,,---,0.00,VWS V14.00,2013-08-21 04:26:00,
2013-08-20 23:31:00,72.1,64.9,29.92,SSW,199,4.0,5.0,78,0.00,,---,0.00,VWS V14.00,2013-08-21 04:31:00,
2013-08-20 23:36:00,72.1,64.5,29.93,SSW,202,4.0,4.0,77,0.00,,---,0.00,VWS V14.00,2013-08-21 04:36:00,
2013-08-20 23:41:00,72.2,64.6,29.93,SSW,207,1.0,4.0,77,0.00,,---,0.00,VWS V14.00,2013-08-21 04:41:00,
2013-08-20 23:46:00,72.3,64.3,29.93,SW,227,5.0,6.0,76,0.00,,---,0.00,VWS V14.00,2013-08-21 04:46:00,
2013-08-20 23:51:00,72.2,64.2,29.92,SSW,195,2.0,5.0,76,0.00,,---,0.00,VWS V14.00,2013-08-21 04:51:00,
2013-08-20 23:56:00,72.1,64.1,29.92,SW,215,2.0,5.0,76,0.00,,---,0.00,VWS V14.00,2013-08-21 04:56:00,